Location: Peterborough
(44.3091°N, 78.3197°W)
Time: 19:55:25
(UTC-04:00)

A-11 Canister half - Pass Details

Date: 22 March 2023
Orbit: 1526 x 1682 km, 47.3° (Epoch: 06 June)

Event Time Altitude Azimuth Distance (km) Brightness Sun altitude
Rises 21:42:21 0° 280° (W) 4,874 12.9 -23.9°
Reaches altitude 10° 21:45:33 10° 282° (WNW) 3,868 12.1 -24.4°
Maximum altitude 21:55:26 78° 9° (N) 1,625 9.0 -26.0°
Enters shadow 21:59:30 41° 89° (E) 2,167 9.3 -26.6°
